Edinburg, TX

5:58 PM CDT on May 23, 2017 (GMT -0500)
Edinburg

Weather History for KEBG - September, 2012

Change the Weather History Date:

Wednesday, September 5, 2012

  Actual Average (KMFE) Record (KMFE)
Temperature  
Mean Temperature 90 °F -  
Max Temperature 102 °F 92 °F 107 °F (2000)
Min Temperature 77 °F 73 °F 62 °F (1974)
Cooling Degree Days 24    
Growing Degree Days 40 (Base 50)    
Moisture  
Dew Point 71 °F    
Average Humidity 61    
Maximum Humidity 86    
Minimum Humidity 29    
Precipitation  
Precipitation 0.00 in - - ()
Sea Level Pressure  
Sea Level Pressure 29.86 in    
Wind  
Wind Speed 8 mph (SSE)    
Max Wind Speed 20 mph    
Max Gust Speed 24 mph    
Visibility 8 miles    
Events      
Averages and records for this station are not official NWS values.
T = Trace of Precipitation, MM = Missing Value Source: NWS Daily Summary

Daily Weather History Graph

Daily Weather History Graph

Search for Another Location

Airport or City:

Trip Planner

Search our weather history database for the weather conditions in past years. The results will help you decide how hot, cold, wet, or windy it might be!

Date:

Astronomy

Sep. 05, 2012 Rise Set
Actual Time 7:14 AM CDT 7:47 PM CDT
Civil Twilight 6:50 AM CDT 8:10 PM CDT
Nautical Twilight 6:23 AM CDT 8:38 PM CDT
Astronomical Twilight 5:55 AM CDT 9:05 PM CDT
Moon 10:54 PM CDT (9/5) 11:44 AM CDT (9/5)
Length of Visible Light 13h 19m
Length of Day
12h 33m
Waning Gibbous, 76% of the Moon is Illuminated
Sep 5
Waning Gibbous
Sep 8
Last Quarter
Sep 15
New
Sep 22
First Quarter
Sep 29
Full

Hourly Weather History & Observations

Time (CDT) Temp. Heat Index Dew Point Humidity Pressure Visibility Wind Dir Wind Speed Gust Speed Precip Events Conditions
12:15 AM 81.9 °F 87.5 °F 73.8 °F 76% 29.89 in 10.0 mi SE 6.9 mph - N/A   Scattered Clouds
12:35 AM 81.1 °F 86.6 °F 73.9 °F 79% 29.89 in 7.0 mi SSE 6.9 mph - N/A   Scattered Clouds
12:55 AM 81.3 °F 87.0 °F 74.3 °F 79% 29.90 in 7.0 mi SE 6.9 mph - N/A   Scattered Clouds
1:15 AM 81.1 °F 86.8 °F 74.5 °F 80% 29.90 in 7.0 mi SSE 6.9 mph - N/A   Scattered Clouds
1:55 AM 81.1 °F 87.0 °F 74.7 °F 81% 29.89 in 7.0 mi SSE 6.9 mph - N/A   Scattered Clouds
2:15 AM 80.8 °F 86.1 °F 74.5 °F 81% 29.89 in 7.0 mi SSE 5.8 mph - N/A   Scattered Clouds
2:35 AM 80.6 °F 85.9 °F 74.5 °F 82% 29.88 in 7.0 mi SSE 5.8 mph - N/A   Clear
2:55 AM 79.9 °F - 74.3 °F 83% 29.88 in 7.0 mi SSE 4.6 mph - N/A   Scattered Clouds
3:15 AM 79.7 °F - 74.3 °F 83% 29.88 in 7.0 mi SSE 3.5 mph - N/A   Scattered Clouds
3:35 AM 79.7 °F - 74.3 °F 83% 29.88 in 7.0 mi Calm Calm - N/A   Mostly Cloudy
3:55 AM 80.1 °F 84.8 °F 74.5 °F 83% 29.88 in 7.0 mi East 3.5 mph - N/A   Overcast
4:15 AM 80.1 °F 84.8 °F 74.5 °F 83% 29.87 in 7.0 mi Calm Calm - N/A   Overcast
4:35 AM 79.7 °F - 74.3 °F 83% 29.87 in 7.0 mi Calm Calm - N/A   Overcast
4:55 AM 79.7 °F - 74.3 °F 83% 29.87 in 7.0 mi Calm Calm - N/A   Mostly Cloudy
5:15 AM 79.7 °F - 74.3 °F 83% 29.87 in 7.0 mi Calm Calm - N/A   Mostly Cloudy
5:35 AM 79.2 °F - 74.3 °F 85% 29.87 in 7.0 mi Calm Calm - N/A   Mostly Cloudy
5:55 AM 79.3 °F - 74.3 °F 84% 29.87 in 7.0 mi Calm Calm - N/A   Overcast
6:15 AM 79.2 °F - 74.3 °F 85% 29.87 in 7.0 mi Calm Calm - N/A   Overcast
6:35 AM 78.8 °F - 73.9 °F 85% 29.87 in 7.0 mi ESE 3.5 mph - N/A   Mostly Cloudy
6:55 AM 78.4 °F - 73.8 °F 85% 29.87 in 7.0 mi ESE 4.6 mph - N/A   Mostly Cloudy
7:15 AM 77.9 °F - 73.4 °F 86% 29.87 in 7.0 mi Calm Calm - N/A   Scattered Clouds
7:35 AM 78.4 °F - 73.9 °F 86% 29.88 in 5.0 mi Calm Calm - N/A   Mostly Cloudy
7:55 AM 78.8 °F - 73.9 °F 85% 29.88 in 5.0 mi Calm Calm - N/A   Haze
8:15 AM 80.1 °F 84.9 °F 74.8 °F 84% 29.89 in 5.0 mi ESE 3.5 mph - N/A   Haze
8:35 AM 81.5 °F 87.8 °F 75.2 °F 81% 29.89 in 7.0 mi SE 6.9 mph - N/A   Mostly Cloudy
8:55 AM 82.4 °F 89.5 °F 75.4 °F 79% 29.89 in 7.0 mi SSE 5.8 mph - N/A   Mostly Cloudy
9:15 AM 83.8 °F 92.1 °F 75.6 °F 76% 29.89 in 5.0 mi South 11.5 mph 18.4 mph N/A   Haze
9:35 AM 84.7 °F 93.2 °F 75.2 °F 73% 29.89 in 7.0 mi South 13.8 mph - N/A   Mostly Cloudy
9:55 AM 86.0 °F 94.2 °F 74.5 °F 68% 29.90 in 7.0 mi South 13.8 mph - N/A   Mostly Cloudy
10:15 AM 87.4 °F 95.3 °F 73.4 °F 63% 29.91 in 7.0 mi SSE 13.8 mph - N/A   Scattered Clouds
10:35 AM 86.9 °F 93.7 °F 72.5 °F 62% 29.91 in 5.0 mi South 13.8 mph 19.6 mph N/A   Haze
10:55 AM 89.1 °F 95.5 °F 71.4 °F 56% 29.91 in 7.0 mi South 13.8 mph 18.4 mph N/A   Scattered Clouds
11:15 AM 90.0 °F 95.4 °F 70.3 °F 52% 29.91 in 7.0 mi South 13.8 mph - N/A   Scattered Clouds
11:35 AM 92.7 °F 98.3 °F 69.8 °F 47% 29.90 in 7.0 mi South 11.5 mph 18.4 mph N/A   Clear
11:55 AM 92.7 °F 97.7 °F 69.1 °F 46% 29.90 in 7.0 mi South 11.5 mph 17.3 mph N/A   Clear
12:15 PM 93.9 °F 99.1 °F 68.7 °F 44% 29.89 in 7.0 mi South 12.7 mph 19.6 mph N/A   Clear
12:35 PM 95.0 °F 99.0 °F 67.5 °F 40% 29.88 in 7.0 mi South 13.8 mph - N/A   Clear
12:55 PM 95.9 °F 100.1 °F 67.6 °F 39% 29.87 in 7.0 mi SSE 15.0 mph 18.4 mph N/A   Clear
1:15 PM 97.0 °F 101.6 °F 67.3 °F 38% 29.86 in 10.0 mi South 12.7 mph 21.9 mph N/A   Clear
1:55 PM 98.6 °F 102.8 °F 66.6 °F 35% 29.84 in 10.0 mi South 10.4 mph 23.0 mph N/A   Clear
2:15 PM 99.0 °F 102.9 °F 66.2 °F 34% 29.83 in 10.0 mi South 13.8 mph 21.9 mph N/A   Clear
2:35 PM 99.7 °F 103.6 °F 65.5 °F 33% 29.82 in 10.0 mi South 8.1 mph 18.4 mph N/A   Clear
3:15 PM 100.0 °F 104.2 °F 65.8 °F 33% 29.81 in 10.0 mi South 10.4 mph - N/A   Clear
3:35 PM 100.8 °F 104.9 °F 66.0 °F 32% 29.81 in 10.0 mi ESE 9.2 mph 18.4 mph N/A   Scattered Clouds
3:55 PM 101.3 °F 105.3 °F 65.7 °F 31% 29.80 in 10.0 mi SE 9.2 mph - N/A   Clear
4:15 PM 101.5 °F 105.6 °F 65.5 °F 31% 29.79 in 10.0 mi ESE 10.4 mph 19.6 mph N/A   Clear
4:35 PM 102.0 °F 105.9 °F 65.3 °F 30% 29.79 in 10.0 mi SE 13.8 mph 19.6 mph N/A   Clear
4:55 PM 101.5 °F 104.9 °F 64.9 °F 30% 29.78 in 10.0 mi SE 11.5 mph 18.4 mph N/A   Clear
5:15 PM 101.3 °F 104.0 °F 63.3 °F 29% 29.78 in 10.0 mi SSE 12.7 mph 18.4 mph N/A   Clear
5:35 PM 101.1 °F 103.6 °F 63.1 °F 29% 29.78 in 10.0 mi SSE 11.5 mph - N/A   Clear
5:55 PM 100.4 °F 102.4 °F 63.1 °F 29% 29.77 in 10.0 mi SSE 10.4 mph 19.6 mph N/A   Clear
6:15 PM 98.8 °F 103.2 °F 66.4 °F 35% 29.78 in 10.0 mi SSE 15.0 mph 23.0 mph N/A   Clear
6:35 PM 97.9 °F 102.1 °F 66.7 °F 36% 29.78 in 10.0 mi SSE 12.7 mph 20.7 mph N/A   Clear
7:15 PM 95.9 °F 99.0 °F 66.0 °F 37% 29.79 in 10.0 mi SE 15.0 mph - N/A   Clear
7:35 PM 94.3 °F 98.7 °F 68.0 °F 42% 29.79 in 10.0 mi SE 15.0 mph 20.7 mph N/A   Clear
7:55 PM 92.7 °F 98.3 °F 69.4 °F 47% 29.80 in 10.0 mi SE 19.6 mph - N/A   Clear
8:15 PM 91.2 °F 97.5 °F 70.7 °F 51% 29.81 in 10.0 mi SE 16.1 mph 24.2 mph N/A   Clear
8:35 PM 89.8 °F 96.5 °F 71.6 °F 55% 29.82 in 10.0 mi SE 16.1 mph 20.7 mph N/A   Clear
8:55 PM 88.9 °F 95.6 °F 71.8 °F 57% 29.83 in 7.0 mi SE 17.3 mph 21.9 mph N/A   Clear
9:15 PM 87.8 °F 94.7 °F 72.1 °F 60% 29.84 in 7.0 mi SE 13.8 mph - N/A   Clear
9:35 PM 86.9 °F 93.3 °F 72.0 °F 61% 29.85 in 7.0 mi SE 13.8 mph - N/A   Clear
9:55 PM 86.2 °F 93.0 °F 72.5 °F 64% 29.85 in 7.0 mi SE 12.7 mph - N/A   Clear
10:15 PM 85.5 °F 92.2 °F 73.0 °F 66% 29.86 in 7.0 mi SE 13.8 mph 18.4 mph N/A   Clear
10:35 PM 85.1 °F 92.2 °F 73.4 °F 68% 29.87 in 7.0 mi SSE 10.4 mph - N/A   Clear
10:55 PM 84.4 °F 91.3 °F 73.6 °F 70% 29.88 in 7.0 mi SSE 10.4 mph - N/A   Clear